| time (UTC) | temp F | wind direction | speed MPH | gust MPH | rain 1hr in | rain 24hr in | rain mn in | humidity % | barometer mb |
| 20260904090026 | 61 | 182 | 0.0 | 2.0 | 0.00 | 0.00 | 0.00 | 53 | 1015.3 |
| 20260904085514 | 61 | 182 | 0.0 | 2.0 | 0.00 | 0.00 | 0.00 | 53 | 1015.2 |
| 20260904085020 | 61 | 157 | 0.0 | 2.0 | 0.00 | 0.00 | 0.00 | 53 | 1015.3 |
| 20260904084530 | 62 | 164 | 0.0 | 2.0 | 0.00 | 0.00 | 0.00 | 52 | 1015.4 |
| 20260904084018 | 62 | 185 | 1.0 | 2.0 | 0.00 | 0.00 | 0.00 | 52 | 1015.3 |
| 20260904083507 | 62 | 189 | 0.0 | 2.0 | 0.00 | 0.00 | 0.00 | 51 | 1015.3 |
| 20260904083018 | 63 | 189 | 0.0 | 2.0 | 0.00 | 0.00 | 0.00 | 52 | 1015.3 |
| 20260904082511 | 63 | 189 | 0.0 | 2.0 | 0.00 | 0.00 | 0.00 | 52 | 1015.3 |
| 20260904082012 | 63 | 323 | 0.0 | 2.0 | 0.00 | 0.00 | 0.00 | 52 | 1015.3 |
| 20260904081526 | 64 | 323 | 0.0 | 2.0 | 0.00 | 0.00 | 0.00 | 51 | 1015.3 |
| 20260904081016 | 64 | 325 | 0.0 | 2.0 | 0.00 | 0.00 | 0.00 | 50 | 1015.2 |
| 20260904080516 | 64 | 322 | 0.0 | 2.0 | 0.00 | 0.00 | 0.00 | 49 | 1015.2 |
| 20260904080050 | 64 | 327 | 0.0 | 2.0 | 0.00 | 0.00 | 0.00 | 50 | 1015.2 |
| 20260904075506 | 65 | 352 | 0.0 | 2.0 | 0.00 | 0.00 | 0.00 | 49 | 1015.2 |
| 20260904075008 | 64 | 9 | 1.0 | 2.0 | 0.00 | 0.00 | 0.00 | 45 | 1015.2 |
| 20260904074526 | 64 | 53 | 0.0 | 2.0 | 0.00 | 0.00 | 0.00 | 47 | 1015.2 |
| 20260904074014 | 64 | 53 | 0.0 | 2.0 | 0.00 | 0.00 | 0.00 | 47 | 1015.2 |
| 20260904073512 | 64 | 31 | 0.0 | 2.0 | 0.00 | 0.00 | 0.00 | 46 | 1015.3 |
| 20260904073032 | 64 | 95 | 0.0 | 2.0 | 0.00 | 0.00 | 0.00 | 47 | 1015.4 |
| 20260904072519 | 65 | 100 | 0.0 | 2.0 | 0.00 | 0.00 | 0.00 | 46 | 1015.4 |
| 20260904072018 | 65 | 100 | 0.0 | 2.0 | 0.00 | 0.00 | 0.00 | 46 | 1015.4 |
| 20260904071511 | 65 | 121 | 0.0 | 2.0 | 0.00 | 0.00 | 0.00 | 45 | 1015.4 |
| 20260904071008 | 66 | 119 | 0.0 | 2.0 | 0.00 | 0.00 | 0.00 | 45 | 1015.4 |
| 20260904070506 | 66 | 119 | 0.0 | 2.0 | 0.00 | 0.00 | 0.00 | 45 | 1015.5 |
| 20260904070009 | 66 | 113 | 0.0 | 2.0 | 0.00 | 0.00 | 0.00 | 44 | 1015.6 |
| 20260904065504 | 67 | 236 | 0.0 | 2.0 | 0.00 | 0.00 | 0.00 | 43 | 1015.5 |
| 20260904065003 | 67 | 298 | 0.0 | 2.0 | 0.00 | 0.00 | 0.00 | 43 | 1015.5 |
| 20260904064507 | 68 | 61 | 0.0 | 2.0 | 0.00 | 0.00 | 0.00 | 42 | 1015.6 |
| 20260904064010 | 68 | 258 | 0.0 | 2.0 | 0.00 | 0.00 | 0.00 | 41 | 1015.4 |
| 20260904063508 | 68 | 233 | 1.0 | 2.0 | 0.00 | 0.00 | 0.00 | 41 | 1015.4 |
| 20260904063018 | 68 | 59 | 0.0 | 2.0 | 0.00 | 0.00 | 0.00 | 40 | 1015.4 |
| 20260904062503 | 69 | 84 | 0.0 | 2.0 | 0.00 | 0.00 | 0.00 | 40 | 1015.5 |
| 20260904062002 | 69 | 95 | 0.0 | 2.0 | 0.00 | 0.00 | 0.00 | 41 | 1015.4 |
| 20260904061503 | 69 | 101 | 0.0 | 5.0 | 0.00 | 0.00 | 0.00 | 41 | 1015.4 |
| 20260904061003 | 70 | 119 | 1.0 | 5.0 | 0.00 | 0.00 | 0.00 | 42 | 1015.4 |
| 20260904060503 | 70 | 112 | 1.0 | 4.0 | 0.00 | 0.00 | 0.00 | 43 | 1015.4 |
| 20260904060012 | 71 | 104 | 0.0 | 2.0 | 0.00 | 0.00 | 0.00 | 40 | 1015.1 |
| 20260904055512 | 72 | 144 | 0.0 | 2.0 | 0.00 | 0.00 | 0.00 | 37 | 1014.9 |
| 20260904055011 | 73 | 235 | 0.0 | 2.0 | 0.00 | 0.00 | 0.00 | 34 | 1014.8 |
| 20260904054508 | 74 | 285 | 0.0 | 3.0 | 0.00 | 0.00 | 0.00 | 32 | 1014.7 |
| 20260904054003 | 74 | 309 | 0.0 | 3.0 | 0.00 | 0.00 | 0.00 | 32 | 1014.6 |
| 20260904053503 | 74 | 227 | 0.0 | 2.0 | 0.00 | 0.00 | 0.00 | 32 | 1014.7 |
| 20260904053007 | 74 | 241 | 0.0 | 7.0 | 0.00 | 0.00 | 0.00 | 31 | 1014.7 |
| 20260904052506 | 75 | 348 | 0.0 | 7.0 | 0.00 | 0.00 | 0.00 | 31 | 1014.7 |
| 20260904052006 | 75 | 273 | 0.0 | 3.0 | 0.00 | 0.00 | 0.00 | 32 | 1014.7 |
| 20260904051520 | 75 | 306 | 0.0 | 3.0 | 0.00 | 0.00 | 0.00 | 31 | 1014.7 |
| 20260904051011 | 75 | 263 | 0.0 | 3.0 | 0.00 | 0.00 | 0.00 | 31 | 1014.6 |
| 20260904050502 | 75 | 257 | 0.0 | 3.0 | 0.00 | 0.00 | 0.00 | 31 | 1014.5 |
| 20260904050006 | 75 | 5 | 1.0 | 2.0 | 0.00 | 0.00 | 0.00 | 31 | 1014.5 |
| 20260904045504 | 75 | 336 | 0.0 | 3.0 | 0.00 | 0.00 | 0.00 | 31 | 1014.5 |
| 20260904045004 | 75 | 225 | 1.0 | 3.0 | 0.00 | 0.00 | 0.00 | 31 | 1014.6 |
| 20260904044511 | 75 | 243 | 0.0 | 2.0 | 0.00 | 0.00 | 0.00 | 31 | 1014.6 |
| 20260904044007 | 76 | 287 | 0.0 | 2.0 | 0.00 | 0.00 | 0.00 | 31 | 1014.6 |
| 20260904043507 | 76 | 173 | 0.0 | 2.0 | 0.00 | 0.00 | 0.00 | 31 | 1014.7 |
| 20260904043024 | 76 | 285 | 0.0 | 2.0 | 0.00 | 0.00 | 0.00 | 31 | 1014.7 |
| 20260904042506 | 76 | 216 | 0.0 | 2.0 | 0.00 | 0.00 | 0.00 | 31 | 1014.7 |
| 20260904042003 | 76 | 285 | 1.0 | 3.0 | 0.00 | 0.00 | 0.00 | 31 | 1014.7 |
| 20260904041504 | 76 | 205 | 1.0 | 3.0 | 0.00 | 0.00 | 0.00 | 31 | 1014.6 |
| 20260904041004 | 76 | 236 | 0.0 | 3.0 | 0.00 | 0.00 | 0.00 | 31 | 1014.6 |
| 20260904040508 | 76 | 271 | 1.0 | 3.0 | 0.00 | 0.00 | 0.00 | 31 | 1014.7 |
| 20260904040014 | 76 | 349 | 1.0 | 2.0 | 0.00 | 0.00 | 0.00 | 31 | 1014.7 |
| 20260904035513 | 76 | 266 | 0.0 | 2.0 | 0.00 | 0.00 | 0.00 | 31 | 1014.8 |
| 20260904035013 | 76 | 236 | 1.0 | 3.0 | 0.00 | 0.00 | 0.00 | 31 | 1014.9 |
| 20260904034503 | 76 | 331 | 0.0 | 3.0 | 0.00 | 0.00 | 0.00 | 31 | 1015.0 |
| 20260904034003 | 76 | 323 | 0.0 | 2.0 | 0.00 | 0.00 | 0.00 | 31 | 1014.9 |
| 20260904033503 | 76 | 244 | 0.0 | 2.0 | 0.00 | 0.00 | 0.00 | 31 | 1015.0 |
| 20260904033017 | 76 | 305 | 0.0 | 2.0 | 0.00 | 0.00 | 0.00 | 31 | 1014.9 |
| 20260904032506 | 76 | 323 | 0.0 | 2.0 | 0.00 | 0.00 | 0.00 | 31 | 1014.9 |
| 20260904032009 | 76 | 286 | 0.0 | 2.0 | 0.00 | 0.00 | 0.00 | 31 | 1015.0 |
| 20260904031520 | 76 | 284 | 0.0 | 2.0 | 0.00 | 0.00 | 0.00 | 32 | 1015.0 |
| 20260904031014 | 77 | 344 | 0.0 | 2.0 | 0.00 | 0.00 | 0.00 | 33 | 1015.0 |
| 20260904030504 | 77 | 292 | 0.0 | 2.0 | 0.00 | 0.00 | 0.00 | 32 | 1014.9 |
| 20260904030004 | 77 | 331 | 0.0 | 2.0 | 0.00 | 0.00 | 0.00 | 32 | 1014.9 |
| 20260904025503 | 77 | 273 | 0.0 | 2.0 | 0.00 | 0.00 | 0.00 | 32 | 1014.8 |
| 20260904025006 | 77 | 295 | 0.0 | 2.0 | 0.00 | 0.00 | 0.00 | 33 | 1014.7 |
| 20260904024510 | 77 | 326 | 0.0 | 2.0 | 0.00 | 0.00 | 0.00 | 33 | 1014.7 |
| 20260904024012 | 77 | 329 | 0.0 | 2.0 | 0.00 | 0.00 | 0.00 | 32 | 1014.7 |
| 20260904023512 | 77 | 317 | 0.0 | 2.0 | 0.00 | 0.00 | 0.00 | 32 | 1014.7 |
| 20260904023026 | 78 | 261 | 0.0 | 3.0 | 0.00 | 0.00 | 0.00 | 32 | 1014.6 |
| 20260904022503 | 78 | 261 | 0.0 | 3.0 | 0.00 | 0.00 | 0.00 | 32 | 1014.5 |
| 20260904022004 | 78 | 352 | 0.0 | 2.0 | 0.00 | 0.00 | 0.00 | 32 | 1014.5 |
| 20260904021504 | 79 | 352 | 0.0 | 2.0 | 0.00 | 0.00 | 0.00 | 32 | 1014.5 |
| 20260904021009 | 79 | 352 | 0.0 | 2.0 | 0.00 | 0.00 | 0.00 | 31 | 1014.5 |
| 20260904020512 | 80 | 352 | 0.0 | 2.0 | 0.00 | 0.00 | 0.00 | 31 | 1014.5 |
| 20260904020018 | 80 | 352 | 0.0 | 2.0 | 0.00 | 0.00 | 0.00 | 31 | 1014.5 |
| 20260904015517 | 81 | 352 | 0.0 | 2.0 | 0.00 | 0.00 | 0.00 | 30 | 1014.4 |
| 20260904015019 | 81 | 331 | 0.0 | 2.0 | 0.00 | 0.00 | 0.00 | 29 | 1014.3 |
| 20260904014503 | 81 | 346 | 0.0 | 2.0 | 0.00 | 0.00 | 0.00 | 28 | 1014.3 |
| 20260904014003 | 82 | 352 | 0.0 | 5.0 | 0.00 | 0.00 | 0.00 | 27 | 1014.3 |
| 20260904013504 | 82 | 337 | 1.0 | 5.0 | 0.00 | 0.00 | 0.00 | 27 | 1014.3 |
| 20260904013010 | 82 | 37 | 2.0 | 5.0 | 0.00 | 0.00 | 0.00 | 26 | 1014.3 |
| 20260904012511 | 83 | 345 | 1.0 | 5.0 | 0.00 | 0.00 | 0.00 | 26 | 1014.3 |
| 20260904012011 | 83 | 54 | 1.0 | 5.0 | 0.00 | 0.00 | 0.00 | 25 | 1014.2 |
| 20260904011527 | 84 | 30 | 0.0 | 4.0 | 0.00 | 0.00 | 0.00 | 25 | 1014.2 |
| 20260904011018 | 84 | 19 | 0.0 | 3.0 | 0.00 | 0.00 | 0.00 | 24 | 1014.2 |
| 20260904010502 | 84 | 5 | 1.0 | 3.0 | 0.00 | 0.00 | 0.00 | 23 | 1014.2 |
| 20260904010011 | 85 | 321 | 0.0 | 5.0 | 0.00 | 0.00 | 0.00 | 23 | 1014.2 |
| 20260904005507 | 85 | 10 | 1.0 | 5.0 | 0.00 | 0.00 | 0.00 | 23 | 1014.2 |
| 20260904005008 | 86 | 360 | 0.0 | 3.0 | 0.00 | 0.00 | 0.00 | 22 | 1014.2 |
| 20260904004515 | 86 | 350 | 1.0 | 3.0 | 0.00 | 0.00 | 0.00 | 22 | 1014.1 |
| 20260904004010 | 86 | 28 | 1.0 | 3.0 | 0.00 | 0.00 | 0.00 | 22 | 1014.0 |
| 20260904003514 | 86 | 22 | 1.0 | 3.0 | 0.00 | 0.00 | 0.00 | 22 | 1013.9 |
| 20260904003027 | 87 | 9 | 1.0 | 5.0 | 0.00 | 0.00 | 0.00 | 23 | 1014.0 |
| 20260904002503 | 87 | 57 | 2.0 | 5.0 | 0.00 | 0.00 | 0.00 | 22 | 1013.9 |
| 20260904002004 | 87 | 32 | 1.0 | 5.0 | 0.00 | 0.00 | 0.00 | 22 | 1014.0 |
| 20260904001510 | 88 | 46 | 2.0 | 6.0 | 0.00 | 0.00 | 0.00 | 21 | 1013.9 |
| 20260904001007 | 88 | 67 | 2.0 | 6.0 | 0.00 | 0.00 | 0.00 | 21 | 1013.9 |
| 20260904000511 | 89 | 37 | 3.0 | 8.0 | 0.00 | 0.00 | 0.00 | 21 | 1013.8 |
| 20260904000020 | 89 | 80 | 3.0 | 9.0 | 0.00 | 0.00 | 0.00 | 21 | 1013.8 |
| 20260903235513 | 89 | 32 | 3.0 | 12.0 | 0.00 | 0.00 | 0.00 | 21 | 1013.8 |
| 20260903235014 | 90 | 52 | 3.0 | 12.0 | 0.00 | 0.00 | 0.00 | 21 | 1013.8 |
| 20260903234502 | 91 | 38 | 4.0 | 11.0 | 0.00 | 0.00 | 0.00 | 21 | 1013.8 |
| 20260903234006 | 92 | 97 | 2.0 | 8.0 | 0.00 | 0.00 | 0.00 | 20 | 1013.8 |
| 20260903233510 | 93 | 352 | 1.0 | 3.0 | 0.00 | 0.00 | 0.00 | 19 | 1013.8 |
| 20260903233029 | 93 | 154 | 0.0 | 4.0 | 0.00 | 0.00 | 0.00 | 18 | 1013.8 |
| 20260903232510 | 93 | 78 | 1.0 | 6.0 | 0.00 | 0.00 | 0.00 | 19 | 1013.8 |
| 20260903232012 | 95 | 71 | 2.0 | 6.0 | 0.00 | 0.00 | 0.00 | 17 | 1013.8 |
| 20260903231539 | 95 | 151 | 0.0 | 2.0 | 0.00 | 0.00 | 0.00 | 18 | 1013.8 |
| 20260903231014 | 94 | 300 | 0.0 | 2.0 | 0.00 | 0.00 | 0.00 | 18 | 1013.8 |
| 20260903230503 | 93 | 142 | 0.0 | 3.0 | 0.00 | 0.00 | 0.00 | 19 | 1013.8 |
| 20260903230006 | 93 | 59 | 1.0 | 3.0 | 0.00 | 0.00 | 0.00 | 18 | 1013.8 |
| 20260903225511 | 93 | 91 | 1.0 | 3.0 | 0.00 | 0.00 | 0.00 | 18 | 1013.8 |
| 20260903225009 | 93 | 314 | 1.0 | 3.0 | 0.00 | 0.00 | 0.00 | 17 | 1013.9 |
| 20260903224520 | 92 | 86 | 0.0 | 7.0 | 0.00 | 0.00 | 0.00 | 19 | 1013.9 |
| 20260903224014 | 92 | 48 | 1.0 | 7.0 | 0.00 | 0.00 | 0.00 | 18 | 1014.0 |
| 20260903223518 | 92 | 347 | 1.0 | 9.0 | 0.00 | 0.00 | 0.00 | 19 | 1013.9 |
| 20260903223033 | 92 | 24 | 1.0 | 9.0 | 0.00 | 0.00 | 0.00 | 1014.0 | |
| 20260903222508 | 92 | 63 | 3.0 | 9.0 | 0.00 | 0.00 | 0.00 | 1014.0 | |
| 20260903222009 | 92 | 69 | 2.0 | 6.0 | 0.00 | 0.00 | 0.00 | 1014.2 | |
| 20260903221510 | 92 | 88 | 1.0 | 6.0 | 0.00 | 0.00 | 0.00 | 19 | 1014.3 |
| 20260903221014 | 92 | 40 | 2.0 | 5.0 | 0.00 | 0.00 | 0.00 | 19 | 1014.4 |
| 20260903220512 | 92 | 91 | 1.0 | 6.0 | 0.00 | 0.00 | 0.00 | 18 | 1014.4 |
| 20260903220036 | 92 | 74 | 3.0 | 6.0 | 0.00 | 0.00 | 0.00 | 18 | 1014.4 |
| 20260903215514 | 92 | 40 | 1.0 | 4.0 | 0.00 | 0.00 | 0.00 | 18 | 1014.5 |
| 20260903215018 | 92 | 74 | 1.0 | 4.0 | 0.00 | 0.00 | 0.00 | 18 | 1014.5 |
| 20260903214507 | 92 | 115 | 2.0 | 6.0 | 0.00 | 0.00 | 0.00 | 19 | 1014.6 |
| 20260903214006 | 91 | 138 | 2.0 | 6.0 | 0.00 | 0.00 | 0.00 | 20 | 1014.6 |
| 20260903213510 | 91 | 42 | 2.0 | 4.0 | 0.00 | 0.00 | 0.00 | 1014.5 | |
| 20260903213016 | 91 | 178 | 1.0 | 7.0 | 0.00 | 0.00 | 0.00 | 1014.6 | |
| 20260903212514 | 91 | 74 | 2.0 | 7.0 | 0.00 | 0.00 | 0.00 | 1014.6 | |
| 20260903212017 | 91 | 46 | 1.0 | 6.0 | 0.00 | 0.00 | 0.00 | 1014.6 | |
| 20260903211542 | 91 | 92 | 2.0 | 12.0 | 0.00 | 0.00 | 0.00 | 1014.6 | |
| 20260903211016 | 91 | 140 | 2.0 | 12.0 | 0.00 | 0.00 | 0.00 | 1014.7 | |
| 20260903210505 | 90 | 126 | 1.0 | 11.0 | 0.00 | 0.00 | 0.00 | 19 | 1014.7 |
| 20260903210013 | 90 | 56 | 2.0 | 12.0 | 0.00 | 0.00 | 0.00 | 19 | 1014.7 |
| 20260903205508 | 90 | 78 | 4.0 | 12.0 | 0.00 | 0.00 | 0.00 | 19 | 1014.7 |
| 20260903205011 | 91 | 73 | 2.0 | 5.0 | 0.00 | 0.00 | 0.00 | 20 | 1014.9 |
| 20260903204523 | 91 | 24 | 1.0 | 4.0 | 0.00 | 0.00 | 0.00 | 20 | 1014.9 |
| 20260903204018 | 90 | 74 | 0.0 | 8.0 | 0.00 | 0.00 | 0.00 | 20 | 1014.9 |
| 20260903203517 | 89 | 198 | 2.0 | 10.0 | 0.00 | 0.00 | 0.00 | 21 | 1015.0 |
| 20260903203034 | 89 | 79 | 2.0 | 10.0 | 0.00 | 0.00 | 0.00 | 20 | 1015.0 |
| 20260903202504 | 89 | 56 | 2.0 | 11.0 | 0.00 | 0.00 | 0.00 | 21 | 1015.0 |
| 20260903202010 | 89 | 112 | 3.0 | 11.0 | 0.00 | 0.00 | 0.00 | 21 | 1015.0 |
| 20260903201516 | 89 | 352 | 2.0 | 7.0 | 0.00 | 0.00 | 0.00 | 22 | 1015.1 |
| 20260903201013 | 89 | 25 | 1.0 | 10.0 | 0.00 | 0.00 | 0.00 | 22 | 1015.2 |
| 20260903200516 | 89 | 360 | 4.0 | 10.0 | 0.00 | 0.00 | 0.00 | 22 | 1015.3 |
| 20260903200027 | 90 | 36 | 3.0 | 5.0 | 0.00 | 0.00 | 0.00 | 21 | 1015.4 |
| 20260903195517 | 89 | 121 | 1.0 | 9.0 | 0.00 | 0.00 | 0.00 | 22 | 1015.5 |
| 20260903195015 | 88 | 102 | 3.0 | 9.0 | 0.00 | 0.00 | 0.00 | 21 | 1015.6 |
| 20260903194510 | 89 | 29 | 4.0 | 9.0 | 0.00 | 0.00 | 0.00 | 22 | 1015.6 |
| 20260903194007 | 89 | 26 | 2.0 | 10.0 | 0.00 | 0.00 | 0.00 | 22 | 1015.6 |
| 20260903193509 | 89 | 164 | 4.0 | 10.0 | 0.00 | 0.00 | 0.00 | 22 | 1015.6 |
| 20260903193023 | 89 | 142 | 2.0 | 8.0 | 0.00 | 0.00 | 0.00 | 22 | 1015.7 |
| 20260903192516 | 88 | 140 | 3.0 | 8.0 | 0.00 | 0.00 | 0.00 | 22 | 1015.7 |
| 20260903192017 | 89 | 15 | 2.0 | 6.0 | 0.00 | 0.00 | 0.00 | 22 | 1015.8 |
| 20260903191533 | 89 | 111 | 2.0 | 7.0 | 0.00 | 0.00 | 0.00 | 21 | 1015.9 |
| 20260903191016 | 89 | 109 | 1.0 | 7.0 | 0.00 | 0.00 | 0.00 | 21 | 1015.8 |
| 20260903190507 | 89 | 102 | 2.0 | 7.0 | 0.00 | 0.00 | 0.00 | 22 | 1015.9 |
| 20260903190012 | 89 | 109 | 2.0 | 5.0 | 0.00 | 0.00 | 0.00 | 22 | 1015.9 |
| 20260903185511 | 89 | 185 | 2.0 | 7.0 | 0.00 | 0.00 | 0.00 | 22 | 1016.1 |
| 20260903185015 | 88 | 59 | 1.0 | 7.0 | 0.00 | 0.00 | 0.00 | 21 | 1016.1 |
| 20260903184528 | 88 | 58 | 2.0 | 9.0 | 0.00 | 0.00 | 0.00 | 22 | 1016.1 |
| 20260903184004 | 88 | 148 | 1.0 | 9.0 | 0.00 | 0.00 | 0.00 | 22 | 1016.2 |
| 20260903183506 | 88 | 119 | 2.0 | 5.0 | 0.00 | 0.00 | 0.00 | 23 | 1016.2 |
| 20260903183008 | 88 | 15 | 1.0 | 6.0 | 0.00 | 0.00 | 0.00 | 22 | 1016.3 |
| 20260903182508 | 87 | 141 | 3.0 | 8.0 | 0.00 | 0.00 | 0.00 | 22 | 1016.3 |
| 20260903182008 | 87 | 46 | 1.0 | 10.0 | 0.00 | 0.00 | 0.00 | 23 | 1016.4 |
| 20260903181522 | 87 | 134 | 2.0 | 10.0 | 0.00 | 0.00 | 0.00 | 24 | 1016.5 |
| 20260903181012 | 87 | 114 | 1.0 | 6.0 | 0.00 | 0.00 | 0.00 | 22 | 1016.6 |
| 20260903180514 | 86 | 132 | 2.0 | 6.0 | 0.00 | 0.00 | 0.00 | 24 | 1016.7 |
| 20260903180003 | 86 | 58 | 2.0 | 8.0 | 0.00 | 0.00 | 0.00 | 24 | 1016.8 |
| 20260903175505 | 86 | 137 | 3.0 | 8.0 | 0.00 | 0.00 | 0.00 | 24 | 1016.8 |
| 20260903175007 | 86 | 30 | 1.0 | 7.0 | 0.00 | 0.00 | 0.00 | 23 | 1016.9 |
| 20260903174517 | 86 | 111 | 2.0 | 6.0 | 0.00 | 0.00 | 0.00 | 24 | 1017.0 |
| 20260903174014 | 86 | 138 | 2.0 | 5.0 | 0.00 | 0.00 | 0.00 | 24 | 1017.1 |
| 20260903173531 | 86 | 205 | 1.0 | 8.0 | 0.00 | 0.00 | 0.00 | 26 | 1017.1 |
| 20260903173028 | 86 | 159 | 1.0 | 9.0 | 0.00 | 0.00 | 0.00 | 24 | 1017.0 |
| 20260903172518 | 86 | 80 | 1.0 | 9.0 | 0.00 | 0.00 | 0.00 | 25 | 1017.1 |
| 20260903172003 | 86 | 219 | 1.0 | 6.0 | 0.00 | 0.00 | 0.00 | 26 | 1017.1 |
| 20260903171507 | 86 | 51 | 2.0 | 6.0 | 0.00 | 0.00 | 0.00 | 24 | 1017.1 |
| 20260903171007 | 86 | 242 | 1.0 | 6.0 | 0.00 | 0.00 | 0.00 | 24 | 1017.0 |
| 20260903170510 | 86 | 190 | 1.0 | 7.0 | 0.00 | 0.00 | 0.00 | 24 | 1017.0 |
| 20260903170029 | 86 | 27 | 2.0 | 7.0 | 0.00 | 0.00 | 0.00 | 24 | 1017.1 |
| 20260903165511 | 86 | 211 | 1.0 | 6.0 | 0.00 | 0.00 | 0.00 | 23 | 1016.9 |
| 20260903165015 | 86 | 101 | 2.0 | 6.0 | 0.00 | 0.00 | 0.00 | 24 | 1017.0 |
| 20260903164529 | 86 | 70 | 1.0 | 6.0 | 0.00 | 0.00 | 0.00 | 25 | 1016.9 |
| 20260903164004 | 86 | 104 | 1.0 | 6.0 | 0.00 | 0.00 | 0.00 | 24 | 1016.9 |
| 20260903163508 | 86 | 144 | 1.0 | 7.0 | 0.00 | 0.00 | 0.00 | 24 | 1017.0 |
| 20260903163012 | 86 | 171 | 2.0 | 7.0 | 0.00 | 0.00 | 0.00 | 24 | 1017.0 |
| 20260903162513 | 85 | 117 | 1.0 | 6.0 | 0.00 | 0.00 | 0.00 | 25 | 1016.9 |
| 20260903162012 | 85 | 91 | 2.0 | 5.0 | 0.00 | 0.00 | 0.00 | 24 | 1017.0 |
| 20260903161526 | 84 | 94 | 2.0 | 5.0 | 0.00 | 0.00 | 0.00 | 25 | 1016.8 |
| 20260903161019 | 84 | 37 | 1.0 | 3.0 | 0.00 | 0.00 | 0.00 | 26 | 1016.8 |
| 20260903160518 | 84 | 134 | 1.0 | 4.0 | 0.00 | 0.00 | 0.00 | 26 | 1016.9 |
| 20260903160008 | 83 | 157 | 1.0 | 7.0 | 0.00 | 0.00 | 0.00 | 27 | 1016.8 |
| 20260903155507 | 82 | 253 | 0.0 | 7.0 | 0.00 | 0.00 | 0.00 | 27 | 1016.8 |
| 20260903155006 | 82 | 57 | 2.0 | 6.0 | 0.00 | 0.00 | 0.00 | 27 | 1017.0 |
| 20260903154515 | 82 | 267 | 1.0 | 3.0 | 0.00 | 0.00 | 0.00 | 27 | 1016.9 |
| 20260903154013 | 81 | 352 | 1.0 | 3.0 | 0.00 | 0.00 | 0.00 | 28 | 1017.0 |
| 20260903153513 | 81 | 242 | 1.0 | 3.0 | 0.00 | 0.00 | 0.00 | 28 | 1017.1 |
| 20260903153031 | 81 | 339 | 1.0 | 5.0 | 0.00 | 0.00 | 0.00 | 29 | 1017.1 |
| 20260903152515 | 81 | 352 | 2.0 | 5.0 | 0.00 | 0.00 | 0.00 | 28 | 1017.2 |
| 20260903152005 | 80 | 351 | 0.0 | 3.0 | 0.00 | 0.00 | 0.00 | 29 | 1017.2 |
| 20260903151511 | 80 | 277 | 1.0 | 4.0 | 0.00 | 0.00 | 0.00 | 31 | 1017.2 |
| 20260903151011 | 79 | 250 | 1.0 | 7.0 | 0.00 | 0.00 | 0.00 | 31 | 1017.3 |
| 20260903150511 | 79 | 299 | 2.0 | 8.0 | 0.00 | 0.00 | 0.00 | 31 | 1017.3 |
| 20260903150039 | 78 | 226 | 1.0 | 10.0 | 0.00 | 0.00 | 0.00 | 31 | 1017.4 |
| 20260903145515 | 78 | 284 | 2.0 | 11.0 | 0.00 | 0.00 | 0.00 | 32 | 1017.4 |
| 20260903145015 | 77 | 268 | 2.0 | 12.0 | 0.00 | 0.00 | 0.00 | 31 | 1017.5 |
| 20260903144532 | 76 | 244 | 5.0 | 11.0 | 0.00 | 0.00 | 0.00 | 32 | 1017.4 |
| 20260903144004 | 76 | 286 | 4.0 | 11.0 | 0.00 | 0.00 | 0.00 | 34 | 1017.4 |
| 20260903143508 | 74 | 221 | 2.0 | 11.0 | 0.00 | 0.00 | 0.00 | 35 | 1017.4 |
| 20260903143026 | 72 | 248 | 5.0 | 11.0 | 0.00 | 0.00 | 0.00 | 37 | 1017.4 |
| 20260903142510 | 69 | 233 | 3.0 | 10.0 | 0.00 | 0.00 | 0.00 | 54 | 1017.4 |
| 20260903142011 | 66 | 199 | 2.0 | 7.0 | 0.00 | 0.00 | 0.00 | 54 | 1017.4 |
| 20260903141530 | 65 | 222 | 1.0 | 2.0 | 0.00 | 0.00 | 0.00 | 55 | 1017.4 |
| 20260903141015 | 64 | 200 | 0.0 | 2.0 | 0.00 | 0.00 | 0.00 | 57 | 1017.4 |
| 20260903140518 | 63 | 300 | 1.0 | 4.0 | 0.00 | 0.00 | 0.00 | 60 | 1017.5 |
| 20260903140008 | 62 | 217 | 0.0 | 4.0 | 0.00 | 0.00 | 0.00 | 61 | 1017.5 |
| 20260903135511 | 61 | 40 | 0.0 | 2.0 | 0.00 | 0.00 | 0.00 | 61 | 1017.4 |
| 20260903135011 | 60 | 342 | 0.0 | 2.0 | 0.00 | 0.00 | 0.00 | 63 | 1017.4 |
| 20260903134522 | 59 | 229 | 0.0 | 2.0 | 0.00 | 0.00 | 0.00 | 63 | 1017.4 |
| 20260903134017 | 59 | 170 | 0.0 | 2.0 | 0.00 | 0.00 | 0.00 | 64 | 1017.2 |
| 20260903133517 | 58 | 223 | 1.0 | 2.0 | 0.00 | 0.00 | 0.00 | 68 | 1017.3 |
| 20260903133034 | 57 | 162 | 0.0 | 2.0 | 0.00 | 0.00 | 0.00 | 67 | 1017.2 |
| 20260903132519 | 56 | 155 | 0.0 | 2.0 | 0.00 | 0.00 | 0.00 | 69 | 1017.1 |
| 20260903132004 | 55 | 178 | 1.0 | 2.0 | 0.00 | 0.00 | 0.00 | 72 | 1017.2 |
| 20260903131511 | 55 | 186 | 0.0 | 2.0 | 0.00 | 0.00 | 0.00 | 72 | 1017.1 |
| 20260903131013 | 55 | 185 | 0.0 | 2.0 | 0.00 | 0.00 | 0.00 | 72 | 1017.2 |
| 20260903130512 | 55 | 185 | 0.0 | 2.0 | 0.00 | 0.00 | 0.00 | 72 | 1017.1 |
| 20260903130027 | 54 | 186 | 0.0 | 2.0 | 0.00 | 0.00 | 0.00 | 73 | 1017.1 |
| 20260903125516 | 54 | 186 | 0.0 | 2.0 | 0.00 | 0.00 | 0.00 | 72 | 1016.8 |
| 20260903125016 | 54 | 186 | 0.0 | 2.0 | 0.00 | 0.00 | 0.00 | 72 | 1016.8 |
| 20260903124508 | 54 | 186 | 0.0 | 2.0 | 0.00 | 0.00 | 0.00 | 71 | 1016.7 |
| 20260903124002 | 54 | 193 | 1.0 | 2.0 | 0.00 | 0.00 | 0.00 | 72 | 1016.7 |
| 20260903123502 | 54 | 200 | 0.0 | 2.0 | 0.00 | 0.00 | 0.00 | 72 | 1016.7 |
| 20260903123002 | 55 | 240 | 0.0 | 2.0 | 0.00 | 0.00 | 0.00 | 71 | 1016.6 |
| 20260903122502 | 55 | 192 | 0.0 | 2.0 | 0.00 | 0.00 | 0.00 | 71 | 1016.6 |
| 20260903122003 | 55 | 192 | 0.0 | 2.0 | 0.00 | 0.00 | 0.00 | 71 | 1016.5 |
| 20260903121504 | 55 | 192 | 0.0 | 2.0 | 0.00 | 0.00 | 0.00 | 70 | 1016.6 |
| 20260903121004 | 55 | 192 | 0.0 | 2.0 | 0.00 | 0.00 | 0.00 | 71 | 1016.6 |
| 20260903120502 | 55 | 208 | 0.0 | 2.0 | 0.00 | 0.00 | 0.00 | 71 | 1016.5 |
| 20260903120004 | 55 | 225 | 0.0 | 2.0 | 0.00 | 0.00 | 0.00 | 71 | 1016.5 |
| 20260903115501 | 55 | 191 | 0.0 | 2.0 | 0.00 | 0.00 | 0.00 | 71 | 1016.5 |
| 20260903115002 | 55 | 191 | 1.0 | 2.0 | 0.00 | 0.00 | 0.00 | 70 | 1016.5 |
| 20260903114503 | 55 | 195 | 1.0 | 2.0 | 0.00 | 0.00 | 0.00 | 71 | 1016.5 |
| 20260903114002 | 55 | 194 | 0.0 | 2.0 | 0.00 | 0.00 | 0.00 | 70 | 1016.5 |
| 20260903113504 | 55 | 194 | 0.0 | 2.0 | 0.00 | 0.00 | 0.00 | 70 | 1016.5 |
| 20260903113003 | 56 | 194 | 0.0 | 2.0 | 0.00 | 0.00 | 0.00 | 70 | 1016.4 |
| 20260903112503 | 56 | 194 | 0.0 | 2.0 | 0.00 | 0.00 | 0.00 | 70 | 1016.4 |
| 20260903112003 | 56 | 194 | 0.0 | 2.0 | 0.00 | 0.00 | 0.00 | 69 | 1016.4 |
| 20260903111503 | 56 | 180 | 1.0 | 2.0 | 0.00 | 0.00 | 0.00 | 69 | 1016.4 |
| 20260903111002 | 56 | 202 | 0.0 | 2.0 | 0.00 | 0.00 | 0.00 | 67 | 1016.4 |
| 20260903110503 | 57 | 202 | 0.0 | 2.0 | 0.00 | 0.00 | 0.00 | 68 | 1016.4 |
| 20260903110003 | 57 | 202 | 0.0 | 2.0 | 0.00 | 0.00 | 0.00 | 66 | 1016.4 |
| 20260903105503 | 57 | 202 | 0.0 | 2.0 | 0.00 | 0.00 | 0.00 | 67 | 1016.5 |
| 20260903105004 | 57 | 202 | 0.0 | 2.0 | 0.00 | 0.00 | 0.00 | 66 | 1016.6 |
| 20260903104503 | 57 | 198 | 0.0 | 2.0 | 0.00 | 0.00 | 0.00 | 68 | 1016.5 |
| 20260903104004 | 57 | 180 | 0.0 | 2.0 | 0.00 | 0.00 | 0.00 | 68 | 1016.5 |
| 20260903103503 | 57 | 180 | 1.0 | 3.0 | 0.00 | 0.00 | 0.00 | 68 | 1016.5 |
| 20260903103004 | 57 | 216 | 1.0 | 3.0 | 0.00 | 0.00 | 0.00 | 65 | 1016.4 |
| 20260903102503 | 56 | 207 | 0.0 | 2.0 | 0.00 | 0.00 | 0.00 | 69 | 1016.4 |
| 20260903102002 | 57 | 191 | 0.0 | 2.0 | 0.00 | 0.00 | 0.00 | 69 | 1016.5 |
| 20260903101505 | 57 | 197 | 0.0 | 2.0 | 0.00 | 0.00 | 0.00 | 68 | 1016.6 |
| 20260903101002 | 57 | 197 | 0.0 | 2.0 | 0.00 | 0.00 | 0.00 | 68 | 1016.7 |
| 20260903100503 | 57 | 197 | 0.0 | 2.0 | 0.00 | 0.00 | 0.00 | 68 | 1016.6 |
| 20260903100004 | 57 | 209 | 0.0 | 2.0 | 0.00 | 0.00 | 0.00 | 68 | 1016.5 |
| 20260903095502 | 57 | 209 | 0.0 | 2.0 | 0.00 | 0.00 | 0.00 | 68 | 1016.5 |
| 20260903095004 | 57 | 189 | 0.0 | 2.0 | 0.00 | 0.00 | 0.00 | 67 | 1016.6 |
| 20260903094504 | 58 | 191 | 0.0 | 2.0 | 0.00 | 0.00 | 0.00 | 68 | 1016.7 |
| 20260903094004 | 58 | 191 | 0.0 | 2.0 | 0.00 | 0.00 | 0.00 | 68 | 1016.8 |
| 20260903093503 | 58 | 192 | 0.0 | 2.0 | 0.00 | 0.00 | 0.00 | 67 | 1016.8 |